TimeEDT,TemperatureF,Dew PointF,Humidity,Sea Level PressureIn,VisibilityMPH,Wind Direction,Wind SpeedMPH,Gust SpeedMPH,PrecipitationIn,Events,Conditions,WindDirDegrees,DateUTC
12:14 AM,32.0,30.2,93,30.22,10.0,WNW,5.8,-,N/A,,Clear,290,2013-10-25 04:14:00
12:34 AM,32.0,30.2,93,30.22,10.0,West,5.8,-,N/A,,Clear,280,2013-10-25 04:34:00
12:54 AM,32.0,30.2,93,30.23,10.0,West,4.6,-,N/A,,Clear,280,2013-10-25 04:54:00
1:14 AM,32.0,30.2,93,30.23,10.0,West,3.5,-,N/A,,Clear,270,2013-10-25 05:14:00
1:34 AM,32.0,30.2,93,30.24,10.0,Calm,Calm,-,N/A,,Clear,0,2013-10-25 05:34:00
1:54 AM,32.0,30.2,93,30.24,10.0,West,4.6,-,N/A,,Clear,270,2013-10-25 05:54:00
2:14 AM,32.0,30.2,93,30.24,10.0,West,4.6,-,N/A,,Clear,280,2013-10-25 06:14:00
2:34 AM,30.2,28.4,93,30.24,10.0,West,3.5,-,N/A,,Clear,270,2013-10-25 06:34:00
2:54 AM,30.2,28.4,93,30.25,10.0,Calm,Calm,-,N/A,,Clear,0,2013-10-25 06:54:00
3:14 AM,28.4,26.6,93,30.25,10.0,WSW,3.5,-,N/A,,Clear,240,2013-10-25 07:14:00
3:34 AM,28.4,28.4,100,30.26,10.0,Calm,Calm,-,N/A,,Clear,0,2013-10-25 07:34:00
3:54 AM,28.4,26.6,93,30.26,10.0,WSW,3.5,-,N/A,,Clear,240,2013-10-25 07:54:00
4:14 AM,28.4,26.6,93,30.27,10.0,Calm,Calm,-,N/A,,Clear,0,2013-10-25 08:14:00
4:34 AM,28.4,26.6,93,30.27,10.0,WSW,3.5,-,N/A,,Clear,250,2013-10-25 08:34:00
4:54 AM,28.4,26.6,93,30.27,10.0,Calm,Calm,-,N/A,,Clear,0,2013-10-25 08:54:00
5:14 AM,28.4,26.6,93,30.28,10.0,Calm,Calm,-,N/A,,Clear,0,2013-10-25 09:14:00
5:34 AM,28.4,26.6,93,30.29,10.0,Calm,Calm,-,N/A,,Clear,0,2013-10-25 09:34:00
5:54 AM,26.6,26.6,100,30.30,10.0,Calm,Calm,-,N/A,,Clear,0,2013-10-25 09:54:00
6:14 AM,26.6,26.6,100,30.30,10.0,Calm,Calm,-,N/A,,Clear,0,2013-10-25 10:14:00
6:34 AM,26.6,26.6,100,30.31,10.0,Calm,Calm,-,N/A,,Clear,0,2013-10-25 10:34:00
6:54 AM,26.6,26.6,100,30.32,10.0,Calm,Calm,-,N/A,,Clear,0,2013-10-25 10:54:00
7:14 AM,26.6,24.8,93,30.32,10.0,Calm,Calm,-,N/A,,Clear,0,2013-10-25 11:14:00
7:34 AM,26.6,24.8,93,30.33,10.0,SW,3.5,-,N/A,,Clear,230,2013-10-25 11:34:00
7:54 AM,26.6,24.8,93,30.33,10.0,SW,3.5,-,N/A,,Clear,230,2013-10-25 11:54:00
8:14 AM,26.6,26.6,100,30.34,7.0,Calm,Calm,-,N/A,,Clear,0,2013-10-25 12:14:00
8:34 AM,28.4,26.6,93,30.35,7.0,Calm,Calm,-,N/A,,Clear,0,2013-10-25 12:34:00
8:54 AM,30.2,28.4,93,30.35,7.0,Calm,Calm,-,N/A,,Clear,0,2013-10-25 12:54:00
9:14 AM,32.0,30.2,93,30.37,10.0,WSW,3.5,-,N/A,,Clear,250,2013-10-25 13:14:00
9:34 AM,32.0,30.2,93,30.37,10.0,West,4.6,-,N/A,,Clear,260,2013-10-25 13:34:00
9:54 AM,33.8,30.2,87,30.38,10.0,West,5.8,-,N/A,,Clear,270,2013-10-25 13:54:00
10:14 AM,35.6,30.2,81,30.38,10.0,West,3.5,-,N/A,,Clear,270,2013-10-25 14:14:00
10:34 AM,39.2,32.0,75,30.38,10.0,West,5.8,-,N/A,,Clear,280,2013-10-25 14:34:00
10:54 AM,41.0,32.0,70,30.38,10.0,Calm,Calm,-,N/A,,Clear,0,2013-10-25 14:54:00
11:14 AM,41.0,32.0,70,30.38,10.0,WNW,4.6,-,N/A,,Scattered Clouds,300,2013-10-25 15:14:00
11:34 AM,41.0,32.0,70,30.38,10.0,West,4.6,-,N/A,,Mostly Cloudy,280,2013-10-25 15:34:00
11:54 AM,44.6,32.0,61,30.37,10.0,West,6.9,-,N/A,,Scattered Clouds,260,2013-10-25 15:54:00
12:14 PM,44.6,32.0,61,30.37,10.0,WNW,5.8,-,N/A,,Scattered Clouds,290,2013-10-25 16:14:00
12:34 PM,42.8,30.2,61,30.37,10.0,WNW,5.8,-,N/A,,Scattered Clouds,290,2013-10-25 16:34:00
12:54 PM,42.8,30.2,61,30.37,10.0,West,8.1,-,N/A,,Mostly Cloudy,260,2013-10-25 16:54:00
1:14 PM,46.4,32.0,57,30.37,10.0,West,8.1,-,N/A,,Overcast,260,2013-10-25 17:14:00
1:34 PM,46.4,32.0,57,30.36,10.0,WNW,9.2,-,N/A,,Overcast,300,2013-10-25 17:34:00
1:54 PM,44.6,30.2,57,30.35,10.0,West,9.2,-,N/A,,Scattered Clouds,280,2013-10-25 17:54:00
2:14 PM,48.2,28.4,46,30.34,10.0,WNW,8.1,16.1,N/A,,Scattered Clouds,300,2013-10-25 18:14:00
2:33 PM,44.6,28.4,53,30.34,10.0,West,4.6,-,N/A,,Scattered Clouds,260,2013-10-25 18:33:00
2:54 PM,44.6,28.4,53,30.34,10.0,WNW,6.9,-,N/A,,Mostly Cloudy,290,2013-10-25 18:54:00
3:14 PM,46.4,26.6,46,30.33,10.0,West,8.1,18.4,N/A,,Scattered Clouds,270,2013-10-25 19:14:00
3:34 PM,50.0,26.6,40,30.33,10.0,WNW,10.4,-,N/A,,Mostly Cloudy,290,2013-10-25 19:34:00
3:54 PM,44.6,26.6,49,30.32,10.0,WSW,8.1,-,N/A,,Overcast,250,2013-10-25 19:54:00
4:14 PM,44.6,26.6,49,30.32,10.0,West,9.2,-,N/A,,Overcast,270,2013-10-25 20:14:00
4:35 PM,46.4,26.6,46,30.32,10.0,West,6.9,-,N/A,,Overcast,270,2013-10-25 20:35:00
4:54 PM,44.6,26.6,49,30.32,10.0,West,5.8,-,N/A,,Overcast,270,2013-10-25 20:54:00
5:14 PM,44.6,26.6,49,30.31,10.0,West,6.9,-,N/A,,Mostly Cloudy,270,2013-10-25 21:14:00
5:35 PM,44.6,24.8,46,30.31,10.0,West,8.1,-,N/A,,Mostly Cloudy,270,2013-10-25 21:35:00
5:54 PM,42.8,24.8,49,30.31,10.0,SW,8.1,-,N/A,,Mostly Cloudy,230,2013-10-25 21:54:00
6:14 PM,42.8,23.0,46,30.31,10.0,WSW,4.6,-,N/A,,Mostly Cloudy,240,2013-10-25 22:14:00
6:34 PM,42.8,24.8,49,30.30,10.0,SW,4.6,-,N/A,,Overcast,230,2013-10-25 22:34:00
6:54 PM,39.2,24.8,56,30.30,10.0,SW,3.5,-,N/A,,Mostly Cloudy,230,2013-10-25 22:54:00
7:14 PM,37.4,26.6,65,30.30,10.0,Calm,Calm,-,N/A,,Mostly Cloudy,0,2013-10-25 23:14:00
7:34 PM,35.6,26.6,70,30.30,10.0,SW,3.5,-,N/A,,Scattered Clouds,220,2013-10-25 23:34:00
7:54 PM,32.0,28.4,87,30.30,10.0,SSW,3.5,-,N/A,,Clear,210,2013-10-25 23:54:00
8:14 PM,32.0,26.6,80,30.29,10.0,SSW,3.5,-,N/A,,Clear,200,2013-10-26 00:14:00
8:34 PM,32.0,26.6,80,30.29,10.0,SSW,4.6,-,N/A,,Clear,210,2013-10-26 00:34:00
8:54 PM,33.8,26.6,75,30.29,10.0,SSW,4.6,-,N/A,,Clear,200,2013-10-26 00:54:00
9:14 PM,33.8,26.6,75,30.28,10.0,SSW,4.6,-,N/A,,Clear,210,2013-10-26 01:14:00
9:34 PM,33.8,26.6,75,30.28,10.0,SSW,4.6,-,N/A,,Clear,210,2013-10-26 01:34:00
9:54 PM,33.8,26.6,75,30.27,10.0,SSW,4.6,-,N/A,,Clear,210,2013-10-26 01:54:00
10:14 PM,33.8,26.6,75,30.27,10.0,SSW,5.8,-,N/A,,Clear,210,2013-10-26 02:14:00
10:34 PM,33.8,26.6,75,30.27,10.0,SSW,4.6,-,N/A,,Clear,210,2013-10-26 02:34:00
10:54 PM,33.8,26.6,75,30.27,10.0,SSW,5.8,-,N/A,,Clear,210,2013-10-26 02:54:00
11:14 PM,32.0,26.6,80,30.26,10.0,SSW,5.8,-,N/A,,Clear,210,2013-10-26 03:14:00
11:34 PM,32.0,26.6,80,30.26,10.0,SSW,5.8,-,N/A,,Clear,210,2013-10-26 03:34:00
11:54 PM,32.0,26.6,80,30.25,10.0,SW,4.6,-,N/A,,Clear,220,2013-10-26 03:54:00